Weather History for KHIF - April, 2014

Change the Weather History Date:

Saturday, April 26, 2014

  Actual Average Record
Temperature  
Mean Temperature 42 °F -  
Max Temperature 46 °F 59 °F 75 °F (2001)
Min Temperature 39 °F 39 °F 33 °F (2008)
Degree Days  
Heating Degree Days 22    
Moisture  
Dew Point 42 °F    
Average Humidity 97    
Maximum Humidity 100    
Minimum Humidity 81    
Precipitation  
Precipitation 0.63 in - - ()
Sea Level Pressure  
Sea Level Pressure 29.55 in    
Wind  
Wind Speed 7 mph (NNW)    
Max Wind Speed 16 mph    
Max Gust Speed -    
Visibility 9 miles    
Events Rain    
Averages and records for this station are not official NWS values.
T = Trace of Precipitation, MM = Missing Value Source: NWS Daily Summary

Daily Weather History Graph

Daily Weather History Graph

Search for Another Location

Airport or City:

Trip Planner

Search our weather history database for the weather conditions in past years. The results will help you decide how hot, cold, wet, or windy it might be!

Date:

Astronomy

Apr. 26, 2014 Rise Set
Actual Time 6:32 AM MDT 8:19 PM MDT
Civil Twilight 6:02 AM MDT 8:49 PM MDT
Nautical Twilight 5:27 AM MDT 9:25 PM MDT
Astronomical Twilight 4:48 AM MDT 10:03 PM MDT
Moon 5:00 AM MDT (4/26) 5:50 PM MDT (4/26)
Length of Visible Light 14h 46m
Length of Day
13h 47m
Waning Crescent, 8% of the Moon is Illuminated
Apr 26
Waning Crescent
Apr 29
New
May 6
First Quarter
May 14
Full
May 21
Last Quarter

Hourly Weather History & Observations

Time (MDT) Temp. Windchill Dew Point Humidity Pressure Visibility Wind Dir Wind Speed Gust Speed Precip Events Conditions
12:13 AM 44.6 °F 41.4 °F 44.6 °F 100% 29.58 in 10.0 mi ESE 5.8 mph - N/A   Mostly Cloudy
12:28 AM 44.6 °F 39.2 °F 44.6 °F 100% 29.57 in 10.0 mi East 10.4 mph - N/A   Mostly Cloudy
12:33 AM 46.4 °F 41.9 °F 44.6 °F 93% 29.57 in 10.0 mi ESE 9.2 mph - N/A   Overcast
12:58 AM 46.0 °F 43.1 °F 43.5 °F 91% 29.46 in 10.0 mi East 5.8 mph - N/A   Overcast
1:03 AM 46.4 °F 42.9 °F 44.6 °F 93% 29.55 in 10.0 mi East 6.9 mph - N/A   Overcast
1:43 AM 46.4 °F 42.4 °F 42.8 °F 87% 29.56 in 10.0 mi ESE 8.1 mph - N/A   Mostly Cloudy
1:58 AM 46.2 °F 42.7 °F 42.3 °F 86% 29.46 in 10.0 mi East 6.9 mph - N/A   Mostly Cloudy
2:03 AM 46.4 °F 45.2 °F 42.8 °F 87% 29.56 in 10.0 mi East 3.5 mph - N/A   Scattered Clouds
2:33 AM 44.6 °F 40.7 °F 44.6 °F 100% 29.55 in 10.0 mi NW 6.9 mph - N/A   Mostly Cloudy
2:38 AM 44.6 °F 42.2 °F 44.6 °F 100% 29.55 in 10.0 mi NNW 4.6 mph - N/A   Mostly Cloudy
2:43 AM 44.6 °F 42.2 °F 44.6 °F 100% 29.54 in 10.0 mi North 4.6 mph - N/A   Mostly Cloudy
2:53 AM 44.6 °F 40.7 °F 44.6 °F 100% 29.54 in 10.0 mi North 6.9 mph - N/A   Mostly Cloudy
2:58 AM 44.8 °F 41.0 °F 44.6 °F 99% 29.45 in 10.0 mi North 6.9 mph - N/A   Overcast
3:03 AM 44.6 °F 39.7 °F 44.6 °F 100% 29.53 in 10.0 mi North 9.2 mph - N/A   Overcast
3:12 AM 44.6 °F 40.2 °F 44.6 °F 100% 29.52 in 10.0 mi North 8.1 mph - N/A   Overcast
3:32 AM 44.6 °F 40.2 °F 42.8 °F 93% 29.51 in 10.0 mi North 8.1 mph - N/A   Mostly Cloudy
3:42 AM 44.6 °F 40.7 °F 42.8 °F 93% 29.51 in 10.0 mi North 6.9 mph - N/A   Scattered Clouds
3:58 AM 44.1 °F 39.5 °F 43.7 °F 99% 29.42 in 10.0 mi North 8.1 mph - N/A   Partly Cloudy
4:04 AM 42.8 °F 38.0 °F 42.8 °F 100% 29.51 in 10.0 mi North 8.1 mph - N/A   Scattered Clouds
4:58 AM 42.8 °F - 42.8 °F 100% 29.42 in 9.0 mi West 1.2 mph - 0.02 in   Mostly Cloudy
5:18 AM 42.8 °F 38.6 °F 42.8 °F 100% 29.50 in 10.0 mi ESE 6.9 mph - N/A Rain Light Rain
5:23 AM 42.8 °F 39.3 °F 42.8 °F 100% 29.50 in 10.0 mi ESE 5.8 mph - N/A Rain Light Rain
5:28 AM 44.6 °F 40.7 °F 42.8 °F 93% 29.50 in 10.0 mi ESE 6.9 mph - N/A Rain Light Rain
5:38 AM 44.6 °F 41.4 °F 44.6 °F 100% 29.50 in 10.0 mi ESE 5.8 mph - N/A Rain Light Rain
5:42 AM 44.6 °F 42.2 °F 44.6 °F 100% 29.50 in 10.0 mi SE 4.6 mph - N/A   Mostly Cloudy
5:52 AM 44.6 °F 42.2 °F 44.6 °F 100% 29.49 in 10.0 mi SSE 4.6 mph - N/A   Overcast
5:57 AM 44.6 °F 42.2 °F 44.6 °F 100% 29.49 in 9.0 mi South 4.6 mph - N/A   Mostly Cloudy
5:58 AM 44.4 °F 42.9 °F 44.2 °F 99% 29.40 in 9.0 mi South 3.5 mph - 0.04 in   Mostly Cloudy
6:03 AM 44.6 °F 43.1 °F 44.6 °F 100% 29.49 in 10.0 mi South 3.5 mph - N/A   Mostly Cloudy
6:08 AM 44.6 °F 42.2 °F 44.6 °F 100% 29.49 in 10.0 mi South 4.6 mph - N/A   Mostly Cloudy
6:44 AM 44.6 °F 42.2 °F 44.6 °F 100% 29.49 in 10.0 mi SE 4.6 mph - N/A   Overcast
6:49 AM 44.6 °F 42.2 °F 44.6 °F 100% 29.49 in 9.0 mi SSE 4.6 mph - N/A   Overcast
6:58 AM 44.8 °F 43.3 °F 44.4 °F 99% 29.41 in 6.0 mi SSE 3.5 mph - 0.01 in   Overcast
7:13 AM 44.6 °F 41.4 °F 44.6 °F 100% 29.49 in 5.0 mi SE 5.8 mph - N/A   Overcast
7:33 AM 44.6 °F 41.4 °F 44.6 °F 100% 29.48 in 8.0 mi East 5.8 mph - N/A   Mostly Cloudy
7:39 AM 44.6 °F 41.4 °F 44.6 °F 100% 29.48 in 9.0 mi East 5.8 mph - N/A   Mostly Cloudy
7:49 AM 44.6 °F 41.4 °F 44.6 °F 100% 29.48 in 10.0 mi East 5.8 mph - N/A   Mostly Cloudy
7:54 AM 44.6 °F 41.4 °F 44.6 °F 100% 29.48 in 10.0 mi East 5.8 mph - N/A   Scattered Clouds
7:55 AM 44.6 °F 41.4 °F 44.6 °F 100% 29.48 in 10.0 mi ESE 5.8 mph - N/A   Scattered Clouds
7:58 AM 44.1 °F 40.8 °F 43.7 °F 99% 29.42 in 10.0 mi ESE 5.8 mph - 0.03 in   Scattered Clouds
8:03 AM 44.6 °F 42.2 °F 44.6 °F 100% 29.47 in 10.0 mi SE 4.6 mph - N/A   Scattered Clouds
8:08 AM 44.6 °F 42.2 °F 44.6 °F 100% 29.47 in 10.0 mi ESE 4.6 mph - N/A   Mostly Cloudy
8:13 AM 44.6 °F 42.2 °F 44.6 °F 100% 29.47 in 10.0 mi ESE 4.6 mph - N/A   Mostly Cloudy
8:18 AM 44.6 °F 42.2 °F 44.6 °F 100% 29.47 in 10.0 mi ESE 4.6 mph - N/A   Mostly Cloudy
8:38 AM 44.6 °F 42.2 °F 44.6 °F 100% 29.47 in 10.0 mi SSE 4.6 mph - N/A   Overcast
8:58 AM 45.0 °F 42.6 °F 44.4 °F 98% 29.40 in 8.0 mi SE 4.6 mph - 0.04 in   Overcast
9:13 AM 44.6 °F 41.4 °F 44.6 °F 100% 29.47 in 6.0 mi SE 5.8 mph - N/A   Overcast
9:58 AM 44.4 °F 39.0 °F 43.7 °F 97% 29.40 in 8.0 mi SSE 10.4 mph - 0.09 in   Overcast
10:03 AM 44.6 °F 38.8 °F 44.6 °F 100% 29.47 in 8.0 mi SSE 11.5 mph - N/A   Overcast
10:58 AM 42.8 °F 36.2 °F 42.8 °F 100% 29.42 in 4.0 mi SW 12.7 mph - 0.08 in Rain Light Rain
11:03 AM 42.8 °F 37.0 °F 42.8 °F 100% 29.49 in 5.0 mi SW 10.4 mph - N/A Rain Light Rain
11:13 AM 42.8 °F 38.0 °F 42.8 °F 100% 29.49 in 8.0 mi WSW 8.1 mph - N/A Rain Light Rain
11:18 AM 42.8 °F 38.6 °F 42.8 °F 100% 29.49 in 9.0 mi WSW 6.9 mph - N/A Rain Light Rain
11:23 AM 42.8 °F 38.0 °F 42.8 °F 100% 29.49 in 10.0 mi West 8.1 mph - N/A Rain Light Rain
11:28 AM 42.8 °F 39.3 °F 42.8 °F 100% 29.50 in 9.0 mi Variable 5.8 mph - N/A Rain Light Rain
11:38 AM 42.8 °F 36.2 °F 41.0 °F 93% 29.50 in 7.0 mi NW 12.7 mph - N/A Rain Rain
11:43 AM 41.0 °F 34.3 °F 41.0 °F 100% 29.50 in 5.0 mi NW 11.5 mph - N/A Rain Rain
11:48 AM 41.0 °F 35.2 °F 41.0 °F 100% 29.50 in 4.0 mi NNW 9.2 mph - N/A Rain Rain
11:53 AM 41.0 °F 34.3 °F 41.0 °F 100% 29.50 in 4.0 mi NNW 11.5 mph - N/A Rain Light Rain
11:58 AM 40.8 °F 35.0 °F 40.5 °F 99% 29.45 in 4.0 mi NNW 9.2 mph - 0.10 in Rain Light Rain
12:03 PM 41.0 °F 33.9 °F 41.0 °F 100% 29.50 in 5.0 mi NNW 12.7 mph - N/A Rain Light Rain
12:18 PM 41.0 °F 33.9 °F 41.0 °F 100% 29.50 in 4.0 mi NNW 12.7 mph - N/A Rain Light Rain
12:23 PM 41.0 °F 33.5 °F 39.2 °F 93% 29.50 in 5.0 mi NNW 13.8 mph - N/A Rain Light Rain
12:28 PM 41.0 °F 33.9 °F 39.2 °F 93% 29.50 in 8.0 mi NW 12.7 mph - N/A Rain Light Rain
12:33 PM 41.0 °F 33.9 °F 39.2 °F 93% 29.51 in 9.0 mi NNW 12.7 mph - N/A Rain Light Rain
12:43 PM 41.0 °F 34.3 °F 39.2 °F 93% 29.51 in 9.0 mi NNW 11.5 mph - N/A Rain Light Rain
12:58 PM 40.1 °F 33.2 °F 39.9 °F 99% 29.46 in 10.0 mi NW 11.5 mph - 0.07 in Rain Light Rain
1:18 PM 39.2 °F 30.8 °F 39.2 °F 100% 29.51 in 10.0 mi NW 15.0 mph - N/A Rain Light Rain
1:23 PM 39.2 °F 31.6 °F 39.2 °F 100% 29.51 in 10.0 mi NW 12.7 mph - N/A Rain Light Rain
1:33 PM 39.2 °F 32.0 °F 39.2 °F 100% 29.52 in 10.0 mi NNW 11.5 mph - N/A Rain Light Rain
1:53 PM 41.0 °F 34.3 °F 39.2 °F 93% 29.52 in 9.0 mi NNW 11.5 mph - N/A Rain Light Rain
1:58 PM 40.5 °F 33.6 °F 40.3 °F 99% 29.47 in 10.0 mi NW 11.5 mph - 0.04 in Rain Light Rain
2:08 PM 39.2 °F 32.5 °F 39.2 °F 100% 29.53 in 10.0 mi NNW 10.4 mph - N/A Rain Light Rain
2:58 PM 39.9 °F 32.5 °F 39.7 °F 99% 29.51 in 10.0 mi North 12.7 mph - 0.04 in Rain Light Rain
3:13 PM 41.0 °F 33.9 °F 39.2 °F 93% 29.55 in 10.0 mi NW 12.7 mph - N/A Rain Light Rain
3:33 PM 39.2 °F 30.5 °F 39.2 °F 100% 29.57 in 10.0 mi NW 16.1 mph - N/A Rain Light Rain
3:38 PM 39.2 °F 31.6 °F 39.2 °F 100% 29.57 in 10.0 mi NNW 12.7 mph - N/A Rain Light Rain
3:43 PM 39.2 °F 30.5 °F 39.2 °F 100% 29.57 in 10.0 mi NW 16.1 mph - N/A Rain Light Rain
3:53 PM 39.2 °F 30.8 °F 39.2 °F 100% 29.58 in 10.0 mi NW 15.0 mph - N/A Rain Light Rain
3:58 PM 40.1 °F 31.6 °F 39.9 °F 99% 29.54 in 10.0 mi NNW 16.1 mph - 0.04 in Rain Light Rain
4:03 PM 41.0 °F 34.7 °F 39.2 °F 93% 29.58 in 10.0 mi NW 10.4 mph - N/A Rain Light Rain
4:08 PM 41.0 °F 33.9 °F 41.0 °F 100% 29.58 in 10.0 mi NW 12.7 mph - N/A Rain Light Rain
4:12 PM 41.0 °F 33.9 °F 41.0 °F 100% 29.58 in 10.0 mi NW 12.7 mph - N/A   Overcast
4:17 PM 41.0 °F 34.7 °F 41.0 °F 100% 29.58 in 10.0 mi NW 10.4 mph - N/A   Overcast
4:21 PM 41.0 °F 33.5 °F 41.0 °F 100% 29.58 in 10.0 mi NW 13.8 mph - N/A Rain Light Rain
4:26 PM 41.0 °F 33.5 °F 41.0 °F 100% 29.58 in 10.0 mi NW 13.8 mph - N/A Rain Light Rain
4:31 PM 41.0 °F 33.9 °F 41.0 °F 100% 29.59 in 10.0 mi NW 12.7 mph - N/A Rain Light Rain
4:58 PM 41.9 °F 35.4 °F 41.5 °F 99% 29.56 in 10.0 mi NW 11.5 mph - 0.01 in Rain Light Rain
5:06 PM 42.8 °F 36.2 °F 41.0 °F 93% 29.60 in 10.0 mi NW 12.7 mph - N/A   Mostly Cloudy
5:11 PM 42.8 °F 37.0 °F 41.0 °F 93% 29.60 in 10.0 mi NW 10.4 mph - N/A   Overcast
5:16 PM 42.8 °F 36.6 °F 41.0 °F 93% 29.60 in 10.0 mi WNW 11.5 mph - N/A   Overcast
5:21 PM 42.8 °F 36.2 °F 41.0 °F 93% 29.60 in 10.0 mi NW 12.7 mph - N/A   Overcast
5:26 PM 42.8 °F 35.8 °F 41.0 °F 93% 29.60 in 10.0 mi NW 13.8 mph - N/A   Overcast
5:36 PM 42.8 °F 37.0 °F 41.0 °F 93% 29.61 in 10.0 mi WNW 10.4 mph - N/A   Overcast
5:46 PM 42.8 °F 37.0 °F 41.0 °F 93% 29.62 in 10.0 mi WNW 10.4 mph - N/A   Overcast
5:55 PM 42.8 °F 35.8 °F 41.0 °F 93% 29.62 in 10.0 mi West 13.8 mph - N/A   Overcast
5:58 PM 42.8 °F 36.2 °F 41.0 °F 93% 29.57 in 10.0 mi West 12.7 mph - 0.00 in   Overcast
6:03 PM 42.8 °F 37.0 °F 41.0 °F 93% 29.62 in 10.0 mi WNW 10.4 mph - N/A   Overcast
6:08 PM 41.0 °F 33.1 °F 41.0 °F 100% 29.63 in 10.0 mi NW 15.0 mph - N/A   Overcast
6:19 PM 42.8 °F 39.3 °F 41.0 °F 93% 29.63 in 10.0 mi NW 5.8 mph - N/A   Overcast
6:34 PM 42.8 °F 40.1 °F 41.0 °F 93% 29.63 in 10.0 mi WNW 4.6 mph - N/A   Overcast
6:39 PM 42.8 °F 40.1 °F 41.0 °F 93% 29.63 in 10.0 mi WNW 4.6 mph - N/A Rain Light Rain
6:58 PM 42.8 °F 41.1 °F 40.6 °F 92% 29.60 in 10.0 mi West 3.5 mph - 0.00 in Rain Light Rain
7:03 PM 42.8 °F 40.1 °F 41.0 °F 93% 29.65 in 10.0 mi WNW 4.6 mph - N/A Rain Light Rain
7:38 PM 41.0 °F 39.0 °F 39.2 °F 93% 29.66 in 10.0 mi NW 3.5 mph - N/A   Scattered Clouds
7:48 PM 41.0 °F - 39.2 °F 93% 29.66 in 10.0 mi NNE 2.3 mph - N/A   Mostly Cloudy
7:58 PM 41.4 °F 39.4 °F 39.9 °F 95% 29.62 in 10.0 mi East 3.5 mph - 0.02 in   Mostly Cloudy
8:58 PM 41.0 °F 39.0 °F 40.8 °F 99% 29.65 in 10.0 mi South 3.5 mph - N/A   Overcast
9:24 PM 41.0 °F 38.0 °F 41.0 °F 100% 29.70 in 10.0 mi SSW 4.6 mph - N/A   Overcast
9:48 PM 42.8 °F - 41.0 °F 93% 29.71 in 10.0 mi Calm Calm - N/A   Overcast
9:53 PM 41.0 °F - 41.0 °F 100% 29.71 in 10.0 mi SE 1.2 mph - N/A   Overcast
9:58 PM 41.9 °F - 39.9 °F 93% 29.66 in 10.0 mi SE 2.3 mph - 0.00 in   Overcast
10:03 PM 42.8 °F - 39.2 °F 87% 29.71 in 10.0 mi Calm Calm - N/A   Overcast
10:08 PM 42.8 °F - 37.4 °F 81% 29.71 in 10.0 mi ENE 1.2 mph - N/A   Overcast
10:27 PM 42.8 °F - 37.4 °F 81% 29.72 in 10.0 mi Calm Calm - N/A   Mostly Cloudy
10:42 PM 42.8 °F - 37.4 °F 81% 29.72 in 10.0 mi Calm Calm - N/A   Mostly Cloudy
10:43 PM 42.8 °F - 39.2 °F 87% 29.72 in 10.0 mi Calm Calm - N/A   Mostly Cloudy
10:58 PM 41.4 °F 39.4 °F 39.6 °F 93% 29.68 in 10.0 mi East 3.5 mph - 0.00 in   Mostly Cloudy
11:08 PM 41.0 °F - 39.2 °F 93% 29.72 in 10.0 mi East 2.3 mph - N/A   Mostly Cloudy
11:13 PM 41.0 °F - 39.2 °F 93% 29.72 in 10.0 mi SSE 2.3 mph - N/A   Mostly Cloudy
11:28 PM 39.2 °F 37.0 °F 39.2 °F 100% 29.72 in 10.0 mi SSE 3.5 mph - N/A   Mostly Cloudy
11:33 PM 39.2 °F 37.0 °F 39.2 °F 100% 29.72 in 10.0 mi SSE 3.5 mph - N/A   Scattered Clouds
11:58 PM 39.0 °F 35.7 °F 38.7 °F 99% 29.70 in 10.0 mi SSW 4.6 mph - N/A   Partly Cloudy